When you browse on this site, cookies collect data to enhance your experience and personalize the content and advertising you see.
Visit our Privacy Policy to learn more. By continuing to use the site, you agree to this use of cookies and data.
  • In Denmark
  • List of Countries
  • For 7 days
  • Water Temperature
  • Weather Map
  • Weather Widgets
  • user-avatar
    Login

    Hourly Weather Biskupin

    Today, 16 October, Wednesday

    Time Temperature Precipitation Wind Pressure Humidity
    00:00 +14°C° 0 mm 3 mps 740 mmHg 83%
    01:00 +14°C° 0 mm 3 mps 740 mmHg 85%
    02:00 +14°C° 0 mm 3 mps 740 mmHg 84%
    03:00 +14°C° 0 mm 4 mps 740 mmHg 83%
    04:00 +15°C° 0 mm 4 mps 741 mmHg 82%
    05:00 +15°C° 0 mm 5 mps 741 mmHg 80%
    06:00 +14°C° 0 mm 6 mps 742 mmHg 78%
    07:00 +14°C° 0 mm 6 mps 742 mmHg 75%
    08:00 +14°C° 0 mm 7 mps 743 mmHg 75%
    09:00 +14°C° 0 mm 7 mps 744 mmHg 75%
    10:00 +14°C° 0 mm 7 mps 744 mmHg 75%
    11:00 +15°C° 0 mm 7 mps 745 mmHg 70%
    12:00 +15°C° 0 mm 6 mps 745 mmHg 64%
    13:00 +16°C° 0 mm 6 mps 746 mmHg 59%
    14:00 +15°C° 0 mm 6 mps 746 mmHg 59%
    15:00 +15°C° 0 mm 5 mps 746 mmHg 59%
    16:00 +15°C° 0 mm 5 mps 746 mmHg 60%
    17:00 +14°C° 0 mm 4 mps 746 mmHg 62%
    18:00 +13°C° 0 mm 4 mps 746 mmHg 65%
    19:00 +12°C° 0 mm 4 mps 746 mmHg 68%
    20:00 +12°C° 0 mm 4 mps 746 mmHg 66%
    21:00 +13°C° 0 mm 4 mps 747 mmHg 64%
    22:00 +13°C° 0 mm 4 mps 747 mmHg 63%
    23:00 +13°C° 0 mm 4 mps 747 mmHg 62%

    Tomorrow, 17 October, Thursday

    Time Temperature Precipitation Wind Pressure Humidity
    00:00 +13°C° 0 mm 4 mps 747 mmHg 61%
    01:00 +13°C° 0 mm 4 mps 747 mmHg 61%
    02:00 +13°C° 0 mm 4 mps 747 mmHg 61%
    03:00 +13°C° 0 mm 3 mps 747 mmHg 61%
    04:00 +13°C° 0 mm 3 mps 747 mmHg 62%
    05:00 +12°C° 0 mm 3 mps 747 mmHg 63%
    06:00 +12°C° 0 mm 3 mps 747 mmHg 64%
    07:00 +13°C° 0 mm 2 mps 747 mmHg 64%
    08:00 +14°C° 0 mm 3 mps 747 mmHg 59%
    09:00 +16°C° 0 mm 3 mps 748 mmHg 53%
    10:00 +18°C° 0 mm 3 mps 748 mmHg 47%
    11:00 +19°C° 0 mm 3 mps 748 mmHg 45%
    12:00 +20°C° 0 mm 3 mps 748 mmHg 42%
    13:00 +21°C° 0 mm 3 mps 748 mmHg 40%
    14:00 +20°C° 0 mm 2 mps 748 mmHg 45%
    15:00 +19°C° 0 mm 2 mps 748 mmHg 50%
    16:00 +18°C° 0 mm 2 mps 748 mmHg 55%
    17:00 +18°C° 0 mm 1 mps 748 mmHg 59%
    18:00 +16°C° 0 mm 1 mps 748 mmHg 62%
    19:00 +15°C° 0 mm 1 mps 748 mmHg 66%
    20:00 +15°C° 0 mm 1 mps 748 mmHg 66%
    21:00 +15°C° 0 mm 1 mps 748 mmHg 67%
    22:00 +14°C° 0 mm 1 mps 748 mmHg 68%
    23:00 +14°C° 0 mm 1 mps 748 mmHg 70%

    Day after tomorrow, 18 October, Friday

    Time Temperature Precipitation Wind Pressure Humidity
    00:00 +13°C° 0 mm 1 mps 748 mmHg 73%
    01:00 +13°C° 0 mm 1 mps 748 mmHg 75%
    02:00 +13°C° 0 mm 1 mps 748 mmHg 76%
    03:00 +13°C° 0 mm 1 mps 748 mmHg 76%
    04:00 +13°C° 0 mm 1 mps 748 mmHg 76%
    05:00 +13°C° 0 mm 1 mps 748 mmHg 76%
    06:00 +13°C° 0 mm 1 mps 748 mmHg 76%
    07:00 +13°C° 0 mm 1 mps 748 mmHg 76%
    08:00 +15°C° 0 mm 1 mps 748 mmHg 71%
    09:00 +16°C° 0 mm 1 mps 748 mmHg 65%
    10:00 +19°C° 0 mm 1 mps 748 mmHg 59%
    11:00 +19°C° 0 mm 2 mps 748 mmHg 56%
    12:00 +20°C° 0 mm 2 mps 748 mmHg 54%
    13:00 +21°C° 0 mm 2 mps 748 mmHg 51%
    14:00 +21°C° 0 mm 1 mps 747 mmHg 54%
    15:00 +21°C° 0 mm 1 mps 747 mmHg 57%
    16:00 +20°C° 0 mm 1 mps 747 mmHg 60%
    17:00 +19°C° 0 mm 1 mps 747 mmHg 64%
    18:00 +18°C° 0 mm 1 mps 747 mmHg 67%
    19:00 +16°C° 0 mm 1 mps 747 mmHg 71%
    20:00 +16°C° 0 mm 1 mps 747 mmHg 70%
    21:00 +16°C° 0 mm 1 mps 747 mmHg 70%
    22:00 +16°C° 0 mm 1 mps 747 mmHg 70%
    23:00 +15°C° 0 mm 1 mps 747 mmHg 70%

    19 October, Saturday

    Time Temperature Precipitation Wind Pressure Humidity
    00:00 +15°C° 0 mm 1 mps 746 mmHg 71%
    01:00 +15°C° 0 mm 1 mps 746 mmHg 71%
    02:00 +14°C° 0 mm 1 mps 746 mmHg 74%
    03:00 +14°C° 0 mm 1 mps 745 mmHg 76%
    04:00 +13°C° 0 mm 2 mps 745 mmHg 79%
    05:00 +13°C° 0 mm 2 mps 745 mmHg 80%
    06:00 +13°C° 0 mm 2 mps 744 mmHg 81%
    07:00 +13°C° 0 mm 2 mps 744 mmHg 81%
    08:00 +14°C° 0 mm 2 mps 744 mmHg 76%
    09:00 +15°C° 0 mm 2 mps 744 mmHg 71%
    10:00 +17°C° 0 mm 2 mps 743 mmHg 66%
    11:00 +18°C° 0 mm 2 mps 743 mmHg 63%
    12:00 +18°C° 0 mm 2 mps 743 mmHg 60%
    13:00 +19°C° 0 mm 2 mps 743 mmHg 58%
    14:00 +20°C° 0 mm 1 mps 743 mmHg 60%
    15:00 +19°C° 0 mm 1 mps 742 mmHg 63%
    16:00 +19°C° 0 mm 1 mps 742 mmHg 65%
    17:00 +16°C° 0 mm 1 mps 742 mmHg 70%
    18:00 +15°C° 0 mm 1 mps 742 mmHg 75%
    19:00 +14°C° 0 mm 1 mps 742 mmHg 81%
    20:00 +13°C° 0 mm 1 mps 742 mmHg 82%
    21:00 +13°C° 0 mm 1 mps 743 mmHg 83%
    22:00 +13°C° 0 mm 1 mps 743 mmHg 84%
    23:00 +13°C° 0 mm 1 mps 743 mmHg 84%

    20 October, Sunday

    Time Temperature Precipitation Wind Pressure Humidity
    00:00 +12°C° 0 mm 1 mps 743 mmHg 84%
    01:00 +12°C° 0 mm 1 mps 743 mmHg 85%
    02:00 +12°C° 0 mm 1 mps 743 mmHg 84%
    03:00 +13°C° 0 mm 1 mps 744 mmHg 84%
    04:00 +13°C° 0 mm 1 mps 744 mmHg 83%
    05:00 +13°C° 0.5 mm 1 mps 744 mmHg 86%
    06:00 +13°C° 0.5 mm 2 mps 745 mmHg 89%
    07:00 +13°C° 0.5 mm 2 mps 745 mmHg 92%
    08:00 +13°C° 0.4 mm 2 mps 745 mmHg 90%
    09:00 +14°C° 0.4 mm 2 mps 746 mmHg 88%
    10:00 +14°C° 0.4 mm 2 mps 746 mmHg 86%
    11:00 +15°C° 0 mm 2 mps 747 mmHg 79%
    12:00 +16°C° 0 mm 2 mps 747 mmHg 73%
    13:00 +17°C° 0 mm 2 mps 747 mmHg 67%
    14:00 +16°C° 0 mm 1 mps 747 mmHg 69%
    15:00 +16°C° 0 mm 1 mps 747 mmHg 71%
    16:00 +15°C° 0 mm 1 mps 747 mmHg 73%
    17:00 +14°C° 0 mm 1 mps 748 mmHg 77%
    18:00 +14°C° 0 mm 1 mps 748 mmHg 81%
    19:00 +13°C° 0 mm 1 mps 748 mmHg 84%
    20:00 +13°C° 0 mm 1 mps 748 mmHg 85%
    21:00 +13°C° 0 mm 1 mps 748 mmHg 85%
    22:00 +13°C° 0 mm 1 mps 748 mmHg 86%
    23:00 +13°C° 0 mm 1 mps 748 mmHg 85%

    21 October, Monday

    Time Temperature Precipitation Wind Pressure Humidity
    00:00 +13°C° 0 mm 1 mps 748 mmHg 85%
    01:00 +13°C° 0 mm 1 mps 748 mmHg 85%
    02:00 +13°C° 0 mm 1 mps 748 mmHg 87%
    03:00 +12°C° 0 mm 1 mps 748 mmHg 88%
    04:00 +12°C° 0 mm 1 mps 748 mmHg 90%
    05:00 +12°C° 0 mm 1 mps 748 mmHg 91%
    06:00 +12°C° 0 mm 2 mps 748 mmHg 92%
    07:00 +12°C° 0 mm 2 mps 748 mmHg 93%
    08:00 +12°C° 0 mm 2 mps 748 mmHg 92%
    09:00 +13°C° 0 mm 2 mps 748 mmHg 91%
    10:00 +13°C° 0 mm 2 mps 748 mmHg 91%
    11:00 +13°C° 0.5 mm 2 mps 748 mmHg 92%
    12:00 +13°C° 0.5 mm 2 mps 748 mmHg 93%
    13:00 +12°C° 0.5 mm 3 mps 748 mmHg 94%
    14:00 +13°C° 0.1 mm 2 mps 748 mmHg 94%
    15:00 +13°C° 0.1 mm 2 mps 748 mmHg 94%
    16:00 +13°C° 0.1 mm 2 mps 748 mmHg 94%
    17:00 +12°C° 0 mm 2 mps 749 mmHg 94%
    18:00 +12°C° 0 mm 2 mps 749 mmHg 95%
    19:00 +12°C° 0 mm 2 mps 749 mmHg 95%
    20:00 +12°C° 0 mm 2 mps 749 mmHg 95%
    21:00 +12°C° 0 mm 2 mps 750 mmHg 95%
    22:00 +12°C° 0 mm 2 mps 750 mmHg 95%
    23:00 +12°C° 0 mm 2 mps 750 mmHg 95%
    Show more